DW2745 Weather Reports


time (UTC)temp
C
wind
direction
speed
KPH
gust
KPH
rain 1hr
cm
rain 24hr
cm
rain mn
cm
humidity
%
barometer
mb
20260504050527 11 219 4.8 9.7 0.00 0.03 0.00 56 1007.4
20260504045525 12 229 6.4 12.9 0.00 0.03 0.00 55 1007.4
20260504045025 12 221 4.8 12.9 0.00 0.03 0.00 55 1007.4
20260504044524 12 222 6.4 12.9 0.00 0.03 0.00 55 1007.5
20260504044024 12 225 6.4 12.9 0.00 0.03 0.00 55 1007.4
20260504043526 12 202 6.4 12.9 0.00 0.03 0.00 55 1007.5
20260504043021 12 240 6.4 12.9 0.00 0.03 0.00 55 1007.4
20260504042520 12 186 4.8 11.3 0.00 0.03 0.00 55 1007.3
20260504042019 12 209 4.8 11.3 0.00 0.03 0.00 56 1007.4
20260504041519 12 257 4.8 12.9 0.00 0.03 0.00 55 1007.4
20260504041019 12 202 3.2 11.3 0.00 0.03 0.00 56 1007.3
20260504040519 12 201 4.8 11.3 0.00 0.03 0.00 56 1007.5
20260504040018 12 223 6.4 14.5 0.00 0.03 0.00 56 1007.5
20260504035518 12 215 4.8 14.5 0.00 0.03 0.03 57 1007.5
20260504035020 12 219 4.8 11.3 0.00 0.03 0.03 58 1007.5
20260504034531 11 223 3.2 9.7 0.00 0.03 0.03 59 1007.5
20260504034022 11 209 1.6 9.7 0.00 0.03 0.03 58 1007.6
20260504033525 11 173 1.6 6.4 0.00 0.03 0.03 58 1007.5
20260504033020 11 197 1.6 6.4 0.00 0.03 0.03 58 1007.5
20260504032516 11 211 1.6 6.4 0.00 0.03 0.03 58 1007.6
20260504032016 12 216 1.6 11.3 0.00 0.03 0.03 58 1007.5
20260504031516 12 196 3.2 11.3 0.00 0.03 0.03 59 1007.6
20260504031015 12 196 3.2 11.3 0.00 0.03 0.03 58 1007.6
20260504030515 12 212 4.8 12.9 0.00 0.03 0.03 59 1007.6
20260504030015 11 223 4.8 12.9 0.00 0.03 0.03 60 1007.7
20260504025516 11 244 4.8 12.9 0.00 0.03 0.03 60 1007.7
20260504025015 11 239 4.8 12.9 0.00 0.03 0.03 62 1007.7
20260504024515 11 215 6.4 16.1 0.00 0.03 0.03 63 1007.8
20260504024017 11 241 9.7 17.7 0.00 0.03 0.03 63 1007.8
20260504023514 11 222 9.7 16.1 0.00 0.03 0.03 66 1007.9
20260504023014 10 231 4.8 8.0 0.00 0.03 0.03 69 1008.0
20260504022516 10 185 3.2 8.0 0.00 0.03 0.03 72 1008.0
20260504022014 10 188 3.2 4.8 0.00 0.03 0.03 74 1008.1
20260504021513 10 172 1.6 6.4 0.00 0.03 0.03 75 1008.0
20260504021013 10 173 3.2 8.0 0.00 0.03 0.03 76 1008.0
20260504020513 10 225 3.2 8.0 0.00 0.03 0.03 77 1008.3
20260504020015 10 173 3.2 8.0 0.00 0.03 0.03 78 1008.1
20260504015514 10 191 3.2 8.0 0.00 0.03 0.03 79 1008.1
20260504015017 9 198 0.0 4.8 0.00 0.03 0.03 80 1008.2
20260504014517 9 198 1.6 4.8 0.00 0.03 0.03 81 1008.1
20260504014011 9 207 1.6 9.7 0.00 0.03 0.03 82 1008.1
20260504013512 9 211 3.2 9.7 0.00 0.03 0.03 83 1008.2
20260504013012 9 186 3.2 8.0 0.03 0.03 0.03 84 1008.3
20260504012512 9 186 1.6 6.4 0.03 0.03 0.03 85 1008.4
20260504012011 9 182 1.6 6.4 0.03 0.03 0.03 84 1008.5
20260504011511 9 203 1.6 6.4 0.03 0.03 0.03 84 1008.5
20260504011011 9 202 1.6 8.0 0.03 0.03 0.03 84 1008.5
20260504010511 9 234 3.2 12.9 0.03 0.03 0.03 83 1008.5
20260504010011 9 246 8.0 11.3 0.03 0.03 0.03 83 1008.7
20260504005510 9 241 4.8 12.9 0.03 0.03 0.03 83 1008.6
20260504005010 9 226 6.4 16.1 0.03 0.03 0.03 82 1008.6
20260504004509 10 243 9.7 19.3 0.03 0.03 0.03 81 1008.7
20260504004008 10 238 11.3 24.1 0.03 0.03 0.03 79 1008.8
20260504003509 10 223 16.1 24.1 0.00 0.00 0.00 78 1009.0
20260504003009 10 242 17.7 29.0 0.00 0.00 0.00 76 1008.9
20260504002508 10 267 19.3 29.0 0.00 0.00 0.00 75 1008.9
20260504002009 10 274 19.3 29.0 0.00 0.00 0.00 73 1008.8
20260504001510 11 253 16.1 32.2 0.00 0.00 0.00 72 1008.6
20260504001007 11 247 16.1 29.0 0.00 0.00 0.00 71 1008.6
20260504000510 11 259 20.9 29.0 0.00 0.00 0.00 71 1008.6
20260504000007 11 271 12.9 40.2 0.00 0.00 0.00 69 1008.6
20260503235507 11 239 19.3 40.2 0.00 0.00 0.00 67 1008.7
20260503235007 11 261 22.5 43.5 0.00 0.00 0.00 66 1008.7
20260503234509 11 232 22.5 43.5 0.00 0.00 0.00 63 1008.6
20260503234006 12 236 19.3 37.0 0.00 0.00 0.00 60 1008.6
20260503233606 12 229 17.7 37.0 0.00 0.00 0.00 58 1008.4
20260503233005 12 209 17.7 33.8 0.00 0.00 0.00 56 1008.3
20260503232505 12 254 19.3 38.6 0.00 0.00 0.00 55 1008.3
20260503232005 12 260 19.3 32.2 0.00 0.00 0.00 55 1008.2
20260503231505 12 252 17.7 30.6 0.00 0.00 0.00 54 1008.1
20260503231007 12 226 20.9 33.8 0.00 0.00 0.00 54 1007.9
20260503230504 12 277 20.9 33.8 0.00 0.00 0.00 53 1008.0
20260503230002 11 238 16.1 27.4 0.00 0.00 0.00 58 1007.8
20260503225501 10 247 14.5 24.1 0.00 0.00 0.00 61 1007.7
20260503225102 9 218 3.2 8.0 0.00 0.00 0.00 66 1007.7
20260503224558 9 104 0.0 4.8 0.00 0.00 0.00 70 1007.8
20260503224058 9 104 0.0 3.2 0.00 0.00 0.00 69 1007.8
20260503223557 9 104 1.6 3.2 0.00 0.00 0.00 69 1007.8
20260503223056 8 104 0.0 3.2 0.00 0.00 0.00 68 1007.7
20260503222555 8 104 0.0 9.7 0.00 0.00 0.00 69 1007.8
20260503222055 8 104 3.2 9.7 0.00 0.00 0.00 71 1007.7
20260503221555 8 103 3.2 9.7 0.00 0.00 0.00 69 1007.6
20260503221054 7 50 3.2 9.7 0.00 0.00 0.00 72 1008.3
20260503220554 7 34 3.2 6.4 0.00 0.00 0.00 73 1008.5
20260503220053 7 61 1.6 11.3 0.00 0.00 0.00 73 1008.6
20260503215553 7 67 8.0 11.3 0.00 0.00 0.00 73 1008.9
20260503215053 7 52 3.2 14.5 0.00 0.00 0.00 74 1008.9
20260503214557 7 53 9.7 14.5 0.00 0.00 0.00 73 1008.8
20260503214057 8 53 8.0 9.7 0.00 0.00 0.00 74 1008.7
20260503213553 8 65 6.4 9.7 0.00 0.00 0.00 73 1008.6
20260503213123 8 65 6.4 9.7 0.00 0.00 0.00 71 1008.3
20260503212556 8 73 1.6 6.4 0.00 0.00 0.00 70 1008.3
20260503212056 8 69 3.2 9.7 0.00 0.00 0.00 70 1008.1
20260503211617 8 68 4.8 9.7 0.00 0.00 0.00 69 1008.0
20260503211052 8 60 4.8 9.7 0.00 0.00 0.00 71 1008.1
20260503210551 8 55 4.8 9.7 0.00 0.00 0.00 69 1008.3
20260503210051 8 54 3.2 8.0 0.00 0.00 0.00 68 1008.3
20260503205551 8 56 3.2 9.7 0.00 0.00 0.00 68 1008.2
20260503205050 8 65 4.8 9.7 0.00 0.00 0.00 65 1008.6
20260503204602 8 56 6.4 9.7 0.00 0.00 0.00 68 1008.5
20260503204048 8 63 6.4 9.7 0.00 0.00 0.00 69 1008.4
20260503203548 8 70 4.8 8.0 0.00 0.00 0.00 67 1008.5
20260503203047 8 67 4.8 8.0 0.00 0.00 0.00 69 1008.7
20260503202547 8 60 4.8 8.0 0.00 0.00 0.00 67 1008.8
20260503202048 8 66 4.8 8.0 0.00 0.00 0.00 68 1008.8
20260503201545 8 45 4.8 8.0 0.00 0.00 0.00 68 1008.8
20260503201043 8 48 4.8 8.0 0.00 0.00 0.00 71 1009.0
20260503200542 7 52 4.8 14.5 0.00 0.00 0.00 72 1009.0
20260503200042 7 49 8.0 14.5 0.00 0.00 0.00 68 1009.1
20260503195540 7 43 8.0 14.5 0.00 0.00 0.00 70 1009.1
20260503195040 7 36 9.7 14.5 0.00 0.00 0.00 68 1009.3
20260503194540 7 42 6.4 9.7 0.00 0.00 0.00 67 1009.4
20260503194038 7 55 6.4 11.3 0.00 0.00 0.00 69 1009.4
20260503193537 7 51 8.0 11.3 0.00 0.00 0.00 67 1009.4
20260503193036 7 35 6.4 9.7 0.00 0.00 0.00 68 1009.7
20260503192536 7 46 6.4 9.7 0.00 0.00 0.00 68 1009.7
20260503192035 7 40 4.8 9.7 0.00 0.00 0.00 68 1009.9
20260503191552 7 45 6.4 9.7 0.00 0.00 0.00 67 1010.0
20260503191035 7 49 4.8 8.0 0.00 0.00 0.00 68 1010.0
20260503190534 7 39 4.8 6.4 0.00 0.00 0.00 67 1010.1
20260503190036 7 39 4.8 6.4 0.00 0.00 0.00 66 1010.3
20260503185534 7 36 4.8 6.4 0.00 0.00 0.00 66 1010.4
20260503185034 7 36 3.2 6.4 0.00 0.00 0.00 67 1010.4
20260503184534 6 36 3.2 6.4 0.00 0.00 0.00 68 1010.5
20260503184031 6 36 4.8 6.4 0.00 0.00 0.00 67 1010.5
20260503183531 6 11 3.2 6.4 0.00 0.00 0.00 67 1010.6
20260503183040 6 11 3.2 6.4 0.00 0.00 0.00 69 1010.6
20260503182529 6 11 1.6 4.8 0.00 0.00 0.00 67 1010.8
20260503182030 6 11 3.2 4.8 0.00 0.00 0.00 66 1010.7
20260503181529 6 11 3.2 4.8 0.00 0.00 0.00 65 1010.8
20260503181028 6 11 3.2 4.8 0.00 0.00 0.00 66 1010.9
20260503180528 6 11 1.6 6.4 0.00 0.00 0.00 67 1011.0
20260503180033 6 11 1.6 8.0 0.00 0.00 0.00 68 1011.0
20260503175527 6 11 4.8 8.0 0.00 0.00 0.00 66 1011.0
20260503175027 6 27 4.8 8.0 0.00 0.00 0.00 65 1011.1
20260503174536 6 27 4.8 9.7 0.00 0.00 0.00 65 1011.1
20260503174026 6 27 4.8 9.7 0.00 0.00 0.00 65 1011.1
20260503173526 7 27 6.4 9.7 0.00 0.00 0.00 66 1011.2
20260503173026 7 37 6.4 11.3 0.00 0.00 0.00 65 1011.1
20260503172525 7 34 6.4 11.3 0.00 0.00 0.00 64 1011.1
20260503172025 7 47 6.4 11.3 0.00 0.00 0.00 67 1011.1
20260503171529 7 48 6.4 11.3 0.00 0.00 0.00 66 1011.2
20260503171029 7 46 6.4 11.3 0.00 0.00 0.00 66 1011.1
20260503170525 7 61 4.8 11.3 0.00 0.00 0.00 67 1011.1
20260503150556 6 311 3.2 4.8 0.00 0.00 0.00 65 1012.4
20260503131044 6 279 9.7 14.5 0.00 0.00 0.00 59 1013.2
20260503130544 6 282 11.3 16.1 0.00 0.00 0.00 60 1013.3
20260503110531 3 234 9.7 16.1 0.00 0.00 0.00 80 1013.0
20260503081506 2 205 3.2 6.4 0.00 0.00 0.00 80 1012.9
20260503081005 3 205 3.2 6.4 0.00 0.00 0.00 79 1012.9
20260503080505 3 206 3.2 8.0 0.00 0.00 0.00 79 1012.9
20260503072559 3 217 4.8 12.9 0.00 0.00 0.00 75 1012.8
20260503072058 3 217 6.4 12.9 0.00 0.00 0.00 75 1012.8
20260503071612 3 213 6.4 11.3 0.00 0.00 0.00 75 1012.8
20260503071056 4 205 6.4 12.9 0.00 0.00 0.00 74 1012.8
20260503070556 4 225 8.0 11.3 0.00 0.00 0.00 74 1012.8
20260503070113 4 231 6.4 12.9 0.00 0.00 0.00 74 1012.8
20260503055048 5 235 6.4 12.9 0.00 0.00 0.00 71 1012.9
20260503054556 5 223 6.4 12.9 0.00 0.00 0.00 71 1013.0